Location: Kitt Peak
(31.9639°N, 111.5992°W)
Time: 18:21:21
(UTC-07:00)

Hubble Space Telescope - Visible Passes

Search period start: 17 February 2018 00:00
Search period end: 27 February 2018 00:00
Orbit: 537 x 541 km, 28.5° (Epoch: 16 February)

Date Brightness Start Highest point End Pass type
(mag) Time Alt. Az. Time Alt. Az. Time Alt. Az.
17 Feb 3.2 05:45:56 10° SSW 05:48:39 17° SSE 05:51:22 10° ESE visible
18 Feb 2.8 05:36:07 14° SSW 05:38:17 21° SSE 05:41:25 10° ESE visible
19 Feb 2.4 05:26:42 21° S 05:27:57 25° SSE 05:31:21 10° ESE visible
20 Feb 2.1 05:17:12 29° S 05:17:37 29° SSE 05:21:14 10° ESE visible
21 Feb 2.0 05:07:37 33° SSE 05:07:37 33° SSE 05:11:03 10° E visible
22 Feb 2.2 04:57:58 33° SE 04:57:58 33° SE 05:00:50 10° E visible
22 Feb 1.3 06:33:57 10° WSW 06:37:58 52° S 06:42:00 10° ESE visible
23 Feb 2.5 04:48:18 28° ESE 04:48:18 28° ESE 04:50:36 10° E visible
23 Feb 1.3 06:23:40 10° W 06:27:41 51° S 06:31:42 10° ESE visible
24 Feb 3.0 04:38:36 23° ESE 04:38:36 23° ESE 04:40:21 10° E visible
24 Feb 1.3 06:13:57 13° WSW 06:17:23 48° S 06:21:23 10° ESE visible
25 Feb 3.4 04:28:54 18° ESE 04:28:54 18° ESE 04:30:05 10° E visible
25 Feb 1.4 06:04:15 17° WSW 06:07:06 44° S 06:11:02 10° ESE visible
26 Feb 3.7 04:19:12 14° ESE 04:19:12 14° ESE 04:19:48 10° ESE visible
26 Feb 1.5 05:54:33 21° WSW 05:56:47 40° S 06:00:40 10° ESE visible
